Georgetown, DE

4:20 AM EST on January 20, 2018 (GMT -0500)
Sussex County

Weather History for KGED - September, 2013

Change the Weather History Date:

Monday, September 9, 2013

  Actual Average Record
Temperature  
Mean Temperature 71 °F 71 °F  
Max Temperature 78 °F 80 °F 94 °F (2016)
Min Temperature 63 °F 62 °F 43 °F (1986)
Degree Days  
Heating Degree Days 0 0  
Month to date heating degree days 0 0  
Since 1 July heating degree days 0 1  
Cooling Degree Days 6 6  
Month to date cooling degree days 78 64  
Year to date cooling degree days 1265 1093  
Growing Degree Days 20 (Base 50)    
Moisture  
Dew Point 61 °F    
Average Humidity 75    
Maximum Humidity 93    
Minimum Humidity 56    
Precipitation  
Precipitation 0.00 in 0.15 in 1.66 in (1987)
Month to date precipitation T 1.36  
Year to date precipitation 41.99 30.63  
Sea Level Pressure  
Sea Level Pressure 30.16 in    
Wind  
Wind Speed 6 mph (East)    
Max Wind Speed 14 mph    
Max Gust Speed 17 mph    
Visibility 10 miles    
Events      
T = Trace of Precipitation, MM = Missing Value Source: NWS Daily Summary

Daily Weather History Graph

Daily Weather History Graph

Search for Another Location

Airport or City:

Trip Planner

Search our weather history database for the weather conditions in past years. The results will help you decide how hot, cold, wet, or windy it might be!

Date:

Astronomy

Sep. 09, 2013 Rise Set
Actual Time 6:37 AM EDT 7:18 PM EDT
Civil Twilight 6:10 AM EDT 7:45 PM EDT
Nautical Twilight 5:39 AM EDT 8:17 PM EDT
Astronomical Twilight 5:06 AM EDT 8:49 PM EDT
Moon 10:53 AM EDT (9/9) 9:37 PM EDT (9/9)
Length of Visible Light 13h 34m
Length of Day
12h 40m
Waxing Crescent, 19% of the Moon is Illuminated
Sep 9
Waxing Crescent
Sep 12
First Quarter
Sep 19
Full
Sep 26
Last Quarter
Oct 4
New

Hourly Weather History & Observations

Time (EDT) Temp. Dew Point Humidity Pressure Visibility Wind Dir Wind Speed Gust Speed Precip Events Conditions
12:54 AM 66.9 °F 55.0 °F 66% 30.07 in 10.0 mi NNE 8.1 mph - N/A   Clear
1:54 AM 66.9 °F 51.1 °F 57% 30.08 in 10.0 mi NNE 9.2 mph - N/A   Clear
2:54 AM 66.0 °F 52.0 °F 60% 30.08 in 10.0 mi NNE 6.9 mph - N/A   Clear
3:54 AM 64.0 °F 54.0 °F 70% 30.09 in 10.0 mi NNE 5.8 mph - N/A   Clear
4:54 AM 64.9 °F 55.0 °F 70% 30.11 in 10.0 mi NNE 5.8 mph - N/A   Mostly Cloudy
5:54 AM 63.0 °F 55.9 °F 78% 30.13 in 10.0 mi NNE 6.9 mph - N/A   Clear
6:54 AM 64.0 °F 57.0 °F 78% 30.15 in 10.0 mi NNE 5.8 mph - N/A   Clear
7:54 AM 66.9 °F 57.9 °F 73% 30.17 in 10.0 mi NNE 6.9 mph - N/A   Clear
8:54 AM 70.0 °F 60.1 °F 71% 30.18 in 10.0 mi ENE 5.8 mph - N/A   Clear
9:54 AM 73.9 °F 62.1 °F 66% 30.19 in 10.0 mi East 8.1 mph - N/A   Scattered Clouds
10:05 AM 75.2 °F 62.6 °F 65% 30.19 in 10.0 mi ESE 8.1 mph - N/A   Mostly Cloudy
10:12 AM 75.2 °F 62.6 °F 65% 30.20 in 10.0 mi ESE 12.7 mph - N/A   Scattered Clouds
10:54 AM 77.0 °F 62.1 °F 60% 30.20 in 10.0 mi ESE 9.2 mph - N/A   Scattered Clouds
11:54 AM 77.0 °F 61.0 °F 58% 30.20 in 10.0 mi East 9.2 mph - N/A   Mostly Cloudy
12:54 PM 78.1 °F 62.1 °F 58% 30.19 in 10.0 mi ESE 9.2 mph 16.1 mph N/A   Overcast
1:54 PM 75.9 °F 62.1 °F 62% 30.19 in 10.0 mi East 6.9 mph - N/A   Overcast
2:54 PM 75.0 °F 63.0 °F 66% 30.19 in 10.0 mi East 10.4 mph - N/A   Overcast
3:54 PM 75.0 °F 63.0 °F 66% 30.18 in 10.0 mi ESE 10.4 mph - N/A   Mostly Cloudy
4:54 PM 73.9 °F 64.0 °F 71% 30.18 in 10.0 mi ESE 10.4 mph - N/A   Scattered Clouds
5:31 PM 73.4 °F 64.4 °F 73% 30.18 in 10.0 mi SE 6.9 mph - N/A   Mostly Cloudy
5:54 PM 73.0 °F 64.0 °F 73% 30.17 in 10.0 mi ESE 10.4 mph - N/A   Overcast
6:07 PM 73.4 °F 64.4 °F 73% 30.18 in 10.0 mi ESE 9.2 mph - N/A   Mostly Cloudy
6:34 PM 73.4 °F 64.4 °F 73% 30.17 in 10.0 mi SE 9.2 mph - N/A   Mostly Cloudy
6:41 PM 71.6 °F 64.4 °F 78% 30.17 in 10.0 mi SE 8.1 mph - N/A   Mostly Cloudy
6:54 PM 72.0 °F 64.0 °F 76% 30.17 in 10.0 mi ESE 6.9 mph - N/A   Mostly Cloudy
7:54 PM 69.1 °F 64.0 °F 84% 30.18 in 10.0 mi ESE 3.5 mph - N/A   Partly Cloudy
8:54 PM 68.0 °F 64.0 °F 87% 30.18 in 10.0 mi SSE 3.5 mph - N/A   Partly Cloudy
9:54 PM 68.0 °F 64.0 °F 87% 30.18 in 10.0 mi SE 3.5 mph - N/A   Clear
10:54 PM 68.0 °F 64.9 °F 90% 30.18 in 10.0 mi Calm Calm - N/A   Clear
11:54 PM 66.9 °F 64.0 °F 90% 30.19 in 10.0 mi Calm Calm - N/A   Clear